Regional Weather Roundup
Issued by NWS Portland, ME

Home | Current Version | Previous Version | Text Only | Print | Product List | Glossary On
Versions: 1 2 3 4 5 6 7 8 9 10 11 12 13 14 15 16 17 18 19 20 21 22 23 24 25 26 27 28 29 30 31 32 33 34 35 36 37 38 39 40 41 42 43 44 45 46 47 48 49 50
000
ASUS41 KGYX 011010
RWRGYX
WEATHER ROUNDUP FOR MAINE AND NEW HAMPSHIRE
NATIONAL WEATHER SERVICE GRAY ME
500 AM EST SUN FEB 01 2015

MEZ002-005-006-010-012-015-018-020-021-024-026-027-029-011100-
MAINE

CITY           SKY/WX    TMP DP  RH WIND       PRES   REMARKS
PORTLAND       PTCLDY     1  -9  62 CALM      30.02R
SANFORD        PTCLDY     0 -13  55 W5        30.01R
BAR HARBOR     CLEAR      7   3  85 W10       29.89R WCI  -8
WISCASSET      CLEAR      9  -3  58 CALM      30.00R
ROCKLAND       CLEAR      3  -4  72 CALM      29.94R
FRYEBURG       PTCLDY   -12 -18  74 CALM      29.96R
LEWISTONAUBURN CLEAR      7  -6  56 NW7       29.95R
AUGUSTA        CLEAR      5  -6  60 W5        29.94R
WATERVILLE     CLEAR      9  -6  52 NW10      29.90R WCI  -6
BANGOR         CLEAR      7  -3  64 NW15G23   29.90R WCI -10
GREENVILLE       N/A     -1  -6  79 NW14G30   29.75F WCI -20
MILLINOCKET    CLEAR      3  -6  66 NW14G21   29.84R WCI -15
HOULTON        CLEAR      2  -6  69 NW16G25   29.75S WCI -18
PRESQUE ISLE   CLEAR      0  -6  78 W9        29.78R
FRENCHVILLE    CLEAR      0  -9  65 NW18G28   29.71S WCI -21
CARIBOU        CLEAR      1  -8  66 NW15G24   29.75R WCI -18
$$

NHZ002-005-008-009-011-012-014-011100-
NEW HAMPSHIRE

CITY           SKY/WX    TMP DP  RH WIND       PRES   REMARKS
PORTSMOUTH     CLEAR     10  -2  57 W12       30.05R WCI  -4
ROCHESTER      PTCLDY     8  -4  58 VRB6      30.01R
NASHUA         PTCLDY     6  -3  66 CALM      30.09R
MANCHESTER     PTCLDY     2  -5  72 SE3       30.06R
CONCORD        PTCLDY     6  -4  63 SW3       30.05R
LACONIA        PTCLDY     7   0  72 SW10      29.97S WCI  -8
PLYMOUTH       CLOUDY     7   1  76 W13G22    30.02F WCI  -9
BERLIN         CLOUDY    -5 -11  75 CALM      29.95S
WHITEFIELD     CLOUDY   -17 -22  78 CALM      30.00R
JAFFREY        PTCLDY     8  -4  58 SW7       30.01R
KEENE          PTCLDY    -2  -8  78 CALM      30.07R
LEBANON        PTCLDY    -7 -12  79 CALM      30.07R
MT WASHINGTON  ICE FOG  -11 -11 100 NW75G84     N/A  VSB 0   WCI -52
$$

VTZ005-007-008-011100-
VERMONT

CITY           SKY/WX    TMP DP  RH WIND       PRES   REMARKS
ST JOHNSBURY     N/A    -15 -20  78 MISG      30.06R
MONTPELIER     LGT SNOW   4   0  83 CALM      30.04S FOG
BURLINGTON     CLOUDY     2  -4  76 E5        30.13R
$$

MAZ007-012-024-CTZ003-RIZ002-NYZ038-NYZ072-011100-
SOUTHERN NEW ENGLAND AND NY

CITY           SKY/WX    TMP DP  RH WIND       PRES   REMARKS
BOSTON         PTCLDY    14   0  53 W14       30.12R WCI  -1
WORCESTER      PTCLDY   N/A N/A N/A SW10      30.04R
NANTUCKET      CLEAR     21   7  54 NW29G37   30.06R WCI   3
PROVIDENCE     CLEAR     13   3  64 W8        30.14R
HARTFORD       MOCLDY    16   5  62 SW7       30.14R
ALBANY         FLURRIES  15   6  67 CALM      30.13S
NEW YORK CITY  MOCLDY    25  10  53 SW10      30.20S WCI  15
$$

ANZ081-ANZ082-ANZ150-NHZ014-MEZ023>029-011100-
COASTAL MARINE OBSERVATIONS

STATION/POSITION TIME  TEMP    WIND        PRES    WAVE
                       AIR SEA DIR/SP/G            HT/PER
                 (UTC) (F)     (DEG/KT/KT) (MB)    (FT/S)
MOUNT DESERT ROC 1000   17                 1011.0R
MATINICUS ROCK   1000          310/ 31/ 34 1013.9R
PORTLAND WX BUOY 0950   16 38  290/ 10/ 14 1016.5R   1/10
WELLS            0900    6 31  280/  5/  7 1015.8R
ISLE OF SHOALS   1000   14     280/ 21/ 25 1016.9R
JEFFREYS LEDGE   0921      44                N/A     6/ 6
CASHES LEDGE BUO 0950   22 43  320/ 29/ 37 1015.0R  10/ 6
$$

.............KEY..............
   WCI - WIND CHILL
   TC  - TEMPERATURE IN CELSIUS
   VSB - VISIBILITY IN MILES
   HX  - HEAT INDEX
   FAIR- INDICATES FEW OR NO CLOUDS BELOW 12,000 FT, WITH NO
         SIGNIFICANT WEATHER AND/OR OBSTRUCTIONS TO VISIBILITY.




USA.gov is the U.S. government's official web portal to all federal, state and local government web resources and services.